Overview Statistics Trail Chart Weather Telemetry Raw packets
 

This is the latest recevied weather packets stored in our database for station/object R2AKT-13. If no packets are shown the sender has not sent any weather packets the latest 10 day(s).

<< 20 21 22 23 24 25 26 >>
Time Temp. Humidity Pressure Rain* Wind** Luminosity Snow
1788433391 16.11° C 75% 989.9 hPa - 0.45 m/s, 189° - -
1788432831 16.11° C 74% 989.9 hPa - 0 m/s - -
1788432291 16.67° C 75% 989.8 hPa - 0 m/s - -
1788431761 16.11° C 76% 989.8 hPa - 0 m/s - -
1788431266 16.11° C 74% 989.8 hPa - 0.45 m/s, 197° - -
1788430706 15.56° C 76% 989.9 hPa - 0.45 m/s, 232° - -
1788430201 15.56° C 76% 989.9 hPa - 0.45 m/s, 282° - -
1788429691 15.56° C 76% 989.9 hPa - 0.45 m/s, 230° - -
1788429161 15.56° C 76% 989.7 hPa - 1.34 m/s, 268° - -
1788428581 16.11° C 75% 989.8 hPa - 0.45 m/s, 259° - -
1788428085 16.11° C 74% 989.6 hPa - 0.89 m/s, 186° - -
1788427496 15.56° C 75% 989.6 hPa - 0.45 m/s, 258° - -
1788427011 16.11° C 75% 989.5 hPa - 0.89 m/s, 272° - -
1788426425 16.11° C 76% 989.5 hPa - 1.34 m/s, 272° - -
1788425856 16.11° C 76% 989.6 hPa - 0.45 m/s, 238° - -
1788425277 16.11° C 75% 989.6 hPa - 0 m/s - -
1788424711 16.11° C 75% 989.5 hPa - 0 m/s - -
1788424116 16.11° C 75% 989.6 hPa - 0.89 m/s, 270° - -
1788423551 16.11° C 75% 989.7 hPa - 0.89 m/s, 269° - -
1788423056 16.11° C 74% 989.7 hPa - 0.45 m/s, 245° - -
1788422506 16.11° C 74% 989.6 hPa - 0.89 m/s, 250° - -
1788422005 16.67° C 72% 989.6 hPa - 0.89 m/s, 161° - -
1788421481 16.67° C 72% 989.7 hPa - 0.45 m/s, 255° - -
1788420991 16.67° C 73% 989.7 hPa - 0.45 m/s, 254° - -
1788420425 16.67° C 73% 989.6 hPa - 0.89 m/s, 154° - -

* Rain since midnight (hover to see other rain measurements)
** Current wind speed in m/s (hover to see current wind gust speed)